Location: Unspecified
(0.0000°N, 0.0000°E)
Time: 20:08:59
(UTC+00:00)

COSMOS 2400 - Visible Passes

Search period start: 15 May 2026 00:00
Search period end: 25 May 2026 00:00
Orbit: 1467 x 1502 km, 82.5° (Epoch: 15 May)

Date Brightness Start Highest point End Pass type
(mag) Time Alt. Az. Time Alt. Az. Time Alt. Az.
15 May 7.4 19:09:24 10° N 19:17:47 55° E 19:26:13 10° SSE visible
15 May 9.4 21:08:50 10° NW 21:14:01 17° W 21:19:14 10° SW visible
16 May 8.3 18:19:35 10° NE 18:26:01 23° E 18:32:28 10° SE visible
16 May 8.3 20:14:12 10° NNW 20:22:12 43° W 20:30:18 10° SSW visible
17 May 7.3 19:21:46 10° N 19:30:25 86° E 19:39:10 10° S visible
18 May 7.8 18:30:51 10° NNE 18:38:40 38° E 18:46:30 10° SSE visible
18 May 9.0 20:28:02 10° NW 20:34:51 27° W 20:41:47 10° SSW visible
19 May 7.8 19:34:35 10° NNW 19:43:04 62° W 19:51:39 10° S visible
20 May 7.4 18:42:49 10° N 18:51:18 61° E 18:59:51 10° SSE visible
20 May 9.7 20:43:02 10° WNW 20:47:31 15° W 20:52:04 10° SW visible
21 May 10.2 05:24:46 10° ESE 05:27:29 12° E 05:30:11 10° ENE visible
21 May 8.6 19:47:54 10° NNW 19:55:44 39° W 20:03:39 10° SSW visible
22 May 7.4 18:55:17 10° N 19:03:57 87° W 19:12:42 10° S visible
23 May 9.3 20:01:55 10° NW 20:08:23 24° W 20:14:57 10° SW visible
24 May 8.0 19:08:12 10° NNW 19:16:35 56° W 19:25:05 10° S visible
